Weather History for Morgantown, WV

Change the Weather History Date:

Friday, August 17, 2012

  Actual Average Record
Temperature  
Mean Temperature 69 °F 72 °F  
Max Temperature 76 °F 83 °F 99 °F (1988)
Min Temperature 62 °F 62 °F 48 °F (1979)
Degree Days  
Heating Degree Days 0 0  
Month to date heating degree days 0 0  
Since 1 June heating degree days 19 34  
Since 1 July heating degree days 0 3  
Cooling Degree Days 4 7  
Month to date cooling degree days 152 133  
Year to date cooling degree days 905 617  
Since 1 June cooling degree days 728 550  
Growing Degree Days 18 (Base 50)    
Moisture  
Dew Point 62 °F    
Average Humidity 82    
Maximum Humidity 100    
Minimum Humidity 64    
Precipitation  
Precipitation 0.06 in 0.11 in 2.60 in (1977)
Month to date precipitation 1.70 2.00  
Year to date precipitation 19.80 27.92  
Sea Level Pressure  
Sea Level Pressure 29.92 in    
Wind  
Wind Speed 3 mph (SW)    
Max Wind Speed 9 mph    
Max Gust Speed 13 mph    
Visibility 8 miles    
Events Rain    
T = Trace of Precipitation, MM = Missing Value Source: NWS Daily Summary

Daily Weather History Graph

Daily Weather History Graph

Search for Another Location

Airport:

Trip Planner

Search our weather history database for the weather conditions in past years. The results will help you decide how hot, cold, wet, or windy it might be!

Date:

Astronomy

Aug. 17, 2012 Rise Set
Actual Time 6:34 AM EDT 8:12 PM EDT
Civil Twilight 6:05 AM EDT 8:40 PM EDT
Nautical Twilight 5:30 AM EDT 9:15 PM EDT
Astronomical Twilight 4:54 AM EDT 9:51 PM EDT
Moon 6:35 AM EDT (8/17) 7:55 PM EDT (8/17)
Length of Visible Light 14h 35m
Length of Day
13h 38m
New Moon, 0% of the Moon is Illuminated
Aug 17
New Moon
Aug 24
First Quarter
Aug 31
Full
Sep 8
Last Quarter
Sep 15
New

Hourly Weather History & Observations

Time (EDT) Temp. Dew Point Humidity Pressure Visibility Wind Dir Wind Speed Gust Speed Precip Events Conditions
12:53 AM 71.1 °F 60.1 °F 68% 29.93 in 10.0 mi South 3.5 mph - N/A   Clear
1:53 AM 70.0 °F 60.1 °F 71% 29.92 in 10.0 mi South 5.8 mph - N/A   Clear
2:53 AM 72.0 °F 60.1 °F 66% 29.90 in 10.0 mi SSW 3.5 mph - N/A   Partly Cloudy
3:53 AM 70.0 °F 60.1 °F 71% 29.87 in 10.0 mi South 3.5 mph - N/A   Partly Cloudy
4:53 AM 71.1 °F 59.0 °F 66% 29.87 in 10.0 mi SSW 4.6 mph - N/A   Mostly Cloudy
5:53 AM 70.0 °F 60.1 °F 71% 29.87 in 10.0 mi SSW 3.5 mph - N/A   Overcast
6:53 AM 70.0 °F 60.1 °F 71% 29.89 in 10.0 mi Variable 3.5 mph - N/A   Mostly Cloudy
7:53 AM 71.1 °F 60.1 °F 68% 29.90 in 10.0 mi SSW 4.6 mph - N/A   Mostly Cloudy
8:53 AM 71.1 °F 61.0 °F 70% 29.91 in 10.0 mi SSW 4.6 mph - N/A   Clear
9:53 AM 73.4 °F 60.8 °F 65% 29.92 in 10.0 mi SW 6.9 mph - N/A   Clear
10:53 AM 73.9 °F 62.1 °F 66% 29.90 in 10.0 mi South 6.9 mph - N/A   Partly Cloudy
11:53 AM 73.9 °F 63.0 °F 68% 29.91 in 10.0 mi Calm Calm - N/A   Overcast
12:53 PM 73.9 °F 63.0 °F 68% 29.90 in 10.0 mi Variable 3.5 mph - N/A   Overcast
1:17 PM 75.2 °F 64.4 °F 69% 29.93 in 10.0 mi WNW 4.6 mph - N/A   Overcast
1:53 PM 75.0 °F 64.0 °F 69% 29.91 in 10.0 mi NW 4.6 mph - N/A   Overcast
2:36 PM 73.4 °F 64.4 °F 73% 29.93 in 10.0 mi Variable 3.5 mph - N/A   Overcast
2:53 PM 72.0 °F 64.9 °F 78% 29.91 in 10.0 mi Variable 4.6 mph - N/A   Overcast
3:53 PM 71.1 °F 63.0 °F 75% 29.91 in 10.0 mi NW 3.5 mph - N/A   Overcast
4:53 PM 69.1 °F 64.9 °F 87% 29.91 in 8.0 mi Calm Calm - 0.01 in   Overcast
5:06 PM 68.0 °F 64.4 °F 88% 29.93 in 4.0 mi Calm Calm - 0.00 in Rain Light Rain
5:15 PM 68.0 °F 66.2 °F 94% 29.93 in 2.5 mi Calm Calm - 0.01 in Rain Light Rain
5:23 PM 66.2 °F 64.4 °F 94% 29.93 in 1.2 mi WNW 6.9 mph - 0.04 in Rain Rain
5:28 PM 66.2 °F 62.6 °F 88% 29.94 in 2.5 mi WNW 5.8 mph - 0.05 in Rain Light Rain
5:30 PM 66.2 °F 62.6 °F 88% 29.94 in 3.0 mi Variable 3.5 mph - 0.05 in Rain Light Rain
5:53 PM 64.9 °F 63.0 °F 93% 29.91 in 10.0 mi Calm Calm - 0.05 in   Overcast
6:53 PM 64.9 °F 63.0 °F 93% 29.91 in 8.0 mi SSW 3.5 mph - 0.00 in   Overcast
7:53 PM 64.9 °F 63.0 °F 93% 29.92 in 10.0 mi South 3.5 mph - N/A   Overcast
8:14 PM 64.4 °F 64.4 °F 100% 29.94 in 10.0 mi Calm Calm - N/A   Overcast
8:53 PM 64.9 °F 64.0 °F 97% 29.93 in 8.0 mi Calm Calm - N/A   Overcast
9:53 PM 64.0 °F 63.0 °F 96% 29.94 in 7.0 mi South 3.5 mph - N/A   Overcast
10:53 PM 63.0 °F 62.1 °F 97% 29.94 in 7.0 mi Calm Calm - N/A   Mostly Cloudy
11:01 PM 62.6 °F 62.6 °F 100% 29.96 in 8.0 mi SSW 3.5 mph - N/A   Scattered Clouds
11:53 PM 63.0 °F 61.0 °F 93% 29.95 in 10.0 mi Calm Calm - N/A   Clear